Year,Month,Day,Hour,Minute,Value (Times are PST for windgust in km/hr)
2015,10,29,00,00,1.60
2015,10,29,00,01,1.60
2015,10,29,00,02,1.60
2015,10,29,00,03,1.60
2015,10,29,00,06,1.60
2015,10,29,00,07,1.60
2015,10,29,00,08,3.20
2015,10,29,00,09,1.60
2015,10,29,00,32,1.60
2015,10,29,00,33,1.60
2015,10,29,00,34,1.60
2015,10,29,00,39,1.60
2015,10,29,00,40,3.20
2015,10,29,00,41,1.60
2015,10,29,01,06,3.20
2015,10,29,01,07,3.20
2015,10,29,01,08,3.20
2015,10,29,01,09,1.60
2015,10,29,01,10,3.20
2015,10,29,01,11,3.20
2015,10,29,01,12,3.20
2015,10,29,01,13,4.80
2015,10,29,01,14,4.80
2015,10,29,01,15,4.80
2015,10,29,01,16,4.80
2015,10,29,01,17,3.20
2015,10,29,01,18,3.20
2015,10,29,01,19,4.80
2015,10,29,01,20,3.20
2015,10,29,01,21,3.20
2015,10,29,01,22,3.20
2015,10,29,01,23,3.20
2015,10,29,01,24,4.80
2015,10,29,01,25,3.20
2015,10,29,01,26,3.20
2015,10,29,01,27,4.80
2015,10,29,01,28,3.20
2015,10,29,01,29,1.60
2015,10,29,01,30,3.20
2015,10,29,01,31,1.60
2015,10,29,01,32,1.60
2015,10,29,01,33,3.20
2015,10,29,01,34,1.60
2015,10,29,01,35,3.20
2015,10,29,01,36,1.60
2015,10,29,01,51,3.20
2015,10,29,01,52,4.80
2015,10,29,01,53,4.80
2015,10,29,01,54,3.20
2015,10,29,01,55,3.20
2015,10,29,01,56,3.20
2015,10,29,01,57,3.20
2015,10,29,01,58,3.20
2015,10,29,01,59,4.80
2015,10,29,02,00,4.80
2015,10,29,02,01,4.80
2015,10,29,02,02,1.60
2015,10,29,02,03,3.20
2015,10,29,02,04,4.80
2015,10,29,02,05,3.20
2015,10,29,02,06,1.60
2015,10,29,02,09,3.20
2015,10,29,02,10,3.20
2015,10,29,02,11,3.20
2015,10,29,02,12,3.20
2015,10,29,02,13,3.20
2015,10,29,02,14,4.80
2015,10,29,02,15,4.80
2015,10,29,02,16,4.80
2015,10,29,02,17,4.80
2015,10,29,02,18,9.60
2015,10,29,02,19,8.10
2015,10,29,02,20,6.40
2015,10,29,02,21,4.80
2015,10,29,02,22,4.80
2015,10,29,02,23,3.20
2015,10,29,02,24,3.20
2015,10,29,02,25,1.60
2015,10,29,02,26,3.20
2015,10,29,02,27,3.20
2015,10,29,02,28,3.20
2015,10,29,02,29,3.20
2015,10,29,02,30,4.80
2015,10,29,02,31,3.20
2015,10,29,02,32,3.20
2015,10,29,02,33,3.20
2015,10,29,02,34,1.60
2015,10,29,02,35,1.60
2015,10,29,02,36,1.60
2015,10,29,02,37,1.60
2015,10,29,02,38,3.20
2015,10,29,02,39,4.80
2015,10,29,02,40,3.20
2015,10,29,02,41,3.20
2015,10,29,02,43,3.20
2015,10,29,02,44,3.20
2015,10,29,02,45,3.20
2015,10,29,02,46,4.80
2015,10,29,02,47,4.80
2015,10,29,02,48,6.40
2015,10,29,02,49,4.80
2015,10,29,02,50,4.80
2015,10,29,02,51,4.80
2015,10,29,02,52,4.80
2015,10,29,02,53,8.10
2015,10,29,02,54,4.80
2015,10,29,02,55,6.40
2015,10,29,02,56,6.40
2015,10,29,02,57,4.80
2015,10,29,02,58,4.80
2015,10,29,02,59,4.80
2015,10,29,03,00,4.80
2015,10,29,03,01,3.20
2015,10,29,03,02,4.80
2015,10,29,03,03,4.80
2015,10,29,03,05,1.60
2015,10,29,03,06,1.60
2015,10,29,03,07,1.60
2015,10,29,03,08,1.60
2015,10,29,03,09,3.20
2015,10,29,03,10,1.60
2015,10,29,03,11,3.20
2015,10,29,03,12,3.20
2015,10,29,03,13,6.40
2015,10,29,03,14,3.20
2015,10,29,03,15,3.20
2015,10,29,03,16,4.80
2015,10,29,03,17,3.20
2015,10,29,03,18,3.20
2015,10,29,03,19,4.80
2015,10,29,03,20,1.60
2015,10,29,03,21,1.60
2015,10,29,03,22,3.20
2015,10,29,03,23,3.20
2015,10,29,03,24,3.20
2015,10,29,03,25,1.60
2015,10,29,03,26,3.20
2015,10,29,03,27,4.80
2015,10,29,03,28,3.20
2015,10,29,03,29,6.40
2015,10,29,03,30,4.80
2015,10,29,03,31,4.80
2015,10,29,03,32,3.20
2015,10,29,03,33,1.60
2015,10,29,03,34,3.20
2015,10,29,03,35,4.80
2015,10,29,03,36,1.60
2015,10,29,03,40,3.20
2015,10,29,03,41,4.80
2015,10,29,03,42,3.20
2015,10,29,03,43,3.20
2015,10,29,03,44,4.80
2015,10,29,03,46,1.60
2015,10,29,03,47,3.20
2015,10,29,03,48,1.60
2015,10,29,03,49,1.60
2015,10,29,03,50,3.20
2015,10,29,03,51,3.20
2015,10,29,03,52,4.80
2015,10,29,03,53,4.80
2015,10,29,03,54,4.80
2015,10,29,03,55,3.20
2015,10,29,03,56,4.80
2015,10,29,03,57,6.40
2015,10,29,03,58,4.80
2015,10,29,03,59,3.20
2015,10,29,04,00,4.80
2015,10,29,04,01,4.80
2015,10,29,04,02,6.40
2015,10,29,04,03,3.20
2015,10,29,04,04,6.40
2015,10,29,04,05,4.80
2015,10,29,04,06,6.40
2015,10,29,04,07,6.40
2015,10,29,04,08,4.80
2015,10,29,04,09,6.40
2015,10,29,04,10,4.80
2015,10,29,04,11,4.80
2015,10,29,04,12,4.80
2015,10,29,04,13,4.80
2015,10,29,04,14,4.80
2015,10,29,04,15,6.40
2015,10,29,04,16,8.10
2015,10,29,04,17,9.60
2015,10,29,04,18,8.10
2015,10,29,04,19,11.30
2015,10,29,04,20,4.80
2015,10,29,04,21,6.40
2015,10,29,04,22,6.40
2015,10,29,04,23,6.40
2015,10,29,04,24,8.10
2015,10,29,04,25,11.30
2015,10,29,04,26,9.60
2015,10,29,04,27,8.10
2015,10,29,04,28,3.20
2015,10,29,04,29,1.60
2015,10,29,04,30,4.80
2015,10,29,04,31,4.80
2015,10,29,04,32,8.10
2015,10,29,04,33,3.20
2015,10,29,04,34,9.60
2015,10,29,04,35,8.10
2015,10,29,04,36,4.80
2015,10,29,04,37,4.80
2015,10,29,04,38,3.20
2015,10,29,04,39,6.40
2015,10,29,04,40,9.60
2015,10,29,04,41,4.80
2015,10,29,04,42,3.20
2015,10,29,04,43,3.20
2015,10,29,04,44,1.60
2015,10,29,04,45,4.80
2015,10,29,04,46,6.40
2015,10,29,04,47,9.60
2015,10,29,04,48,4.80
2015,10,29,04,49,1.60
2015,10,29,04,50,3.20
2015,10,29,04,51,6.40
2015,10,29,04,52,9.60
2015,10,29,04,53,3.20
2015,10,29,04,54,4.80
2015,10,29,04,55,3.20
2015,10,29,04,56,1.60
2015,10,29,04,57,8.10
2015,10,29,04,58,6.40
2015,10,29,04,59,8.10
2015,10,29,05,00,3.20
2015,10,29,05,01,1.60
2015,10,29,05,02,8.10
2015,10,29,05,03,8.10
2015,10,29,05,04,11.30
2015,10,29,05,05,6.40
2015,10,29,05,06,8.10
2015,10,29,05,07,6.40
2015,10,29,05,08,6.40
2015,10,29,05,09,3.20
2015,10,29,05,10,4.80
2015,10,29,05,11,6.40
2015,10,29,05,12,9.60
2015,10,29,05,13,11.30
2015,10,29,05,14,4.80
2015,10,29,05,15,4.80
2015,10,29,05,16,3.20
2015,10,29,05,17,8.10
2015,10,29,05,18,6.40
2015,10,29,05,19,8.10
2015,10,29,05,20,12.90
2015,10,29,05,21,8.10
2015,10,29,05,22,8.10
2015,10,29,05,23,4.80
2015,10,29,05,24,4.80
2015,10,29,05,25,4.80
2015,10,29,05,26,6.40
2015,10,29,05,27,3.20
2015,10,29,05,28,3.20
2015,10,29,05,29,4.80
2015,10,29,05,30,3.20
2015,10,29,05,31,3.20
2015,10,29,05,32,1.60
2015,10,29,05,33,4.80
2015,10,29,05,34,4.80
2015,10,29,05,35,4.80
2015,10,29,05,36,3.20
2015,10,29,05,37,3.20
2015,10,29,05,38,6.40
2015,10,29,05,39,1.60
2015,10,29,05,41,1.60
2015,10,29,05,42,3.20
2015,10,29,05,43,4.80
2015,10,29,05,44,4.80
2015,10,29,05,45,3.20
2015,10,29,05,47,1.60
2015,10,29,05,49,4.80
2015,10,29,05,50,3.20
2015,10,29,05,51,1.60
2015,10,29,05,52,3.20
2015,10,29,05,54,1.60
2015,10,29,05,55,1.60
2015,10,29,05,56,1.60
2015,10,29,05,57,3.20
2015,10,29,05,58,4.80
2015,10,29,05,59,6.40
2015,10,29,06,00,4.80
2015,10,29,06,01,3.20
2015,10,29,06,02,6.40
2015,10,29,06,03,1.60
2015,10,29,06,04,3.20
2015,10,29,06,05,3.20
2015,10,29,06,06,4.80
2015,10,29,06,07,4.80
2015,10,29,06,08,3.20
2015,10,29,06,09,4.80
2015,10,29,06,10,3.20
2015,10,29,06,11,3.20
2015,10,29,06,15,1.60
2015,10,29,06,16,3.20
2015,10,29,06,17,3.20
2015,10,29,06,18,4.80
2015,10,29,06,19,3.20
2015,10,29,06,20,1.60
2015,10,29,06,23,1.60
2015,10,29,06,24,1.60
2015,10,29,06,25,3.20
2015,10,29,06,26,3.20
2015,10,29,06,27,3.20
2015,10,29,06,28,3.20
2015,10,29,06,30,1.60
2015,10,29,06,32,1.60
2015,10,29,06,33,1.60
2015,10,29,06,34,3.20
2015,10,29,06,35,3.20
2015,10,29,06,36,4.80
2015,10,29,06,37,3.20
2015,10,29,06,38,1.60
2015,10,29,06,39,3.20
2015,10,29,06,40,4.80
2015,10,29,06,41,6.40
2015,10,29,06,42,4.80
2015,10,29,06,43,4.80
2015,10,29,06,44,4.80
2015,10,29,06,45,4.80
2015,10,29,06,46,4.80
2015,10,29,06,47,3.20
2015,10,29,06,48,1.60
2015,10,29,06,49,1.60
2015,10,29,06,50,3.20
2015,10,29,06,51,3.20
2015,10,29,06,52,3.20
2015,10,29,06,53,3.20
2015,10,29,06,54,3.20
2015,10,29,06,55,1.60
2015,10,29,06,58,4.80
2015,10,29,06,59,3.20
2015,10,29,07,00,3.20
2015,10,29,07,01,3.20
2015,10,29,07,02,3.20
2015,10,29,07,03,4.80
2015,10,29,07,04,4.80
2015,10,29,07,05,4.80
2015,10,29,07,06,1.60
2015,10,29,07,07,3.20
2015,10,29,07,08,1.60
2015,10,29,07,10,1.60
2015,10,29,07,11,1.60
2015,10,29,07,12,1.60
2015,10,29,07,13,3.20
2015,10,29,07,14,1.60
2015,10,29,07,15,1.60
2015,10,29,07,16,3.20
2015,10,29,07,17,3.20
2015,10,29,07,18,1.60
2015,10,29,07,19,1.60
2015,10,29,07,23,1.60
2015,10,29,07,24,1.60
2015,10,29,07,26,1.60
2015,10,29,07,27,1.60
2015,10,29,07,28,1.60
2015,10,29,07,31,3.20
2015,10,29,07,32,3.20
2015,10,29,07,33,1.60
2015,10,29,07,36,3.20
2015,10,29,07,37,4.80
2015,10,29,07,38,3.20
2015,10,29,07,39,3.20
2015,10,29,07,40,3.20
2015,10,29,07,41,4.80
2015,10,29,07,42,6.40
2015,10,29,07,43,6.40
2015,10,29,07,44,8.10
2015,10,29,07,45,3.20
2015,10,29,07,46,1.60
2015,10,29,07,47,3.20
2015,10,29,07,48,4.80
2015,10,29,07,49,6.40
2015,10,29,07,50,4.80
2015,10,29,07,51,4.80
2015,10,29,07,52,3.20
2015,10,29,07,53,3.20
2015,10,29,07,54,3.20
2015,10,29,07,55,1.60
2015,10,29,08,04,3.20
2015,10,29,08,05,3.20
2015,10,29,08,06,3.20
2015,10,29,08,07,1.60
2015,10,29,08,08,4.80
2015,10,29,08,09,3.20
2015,10,29,08,10,1.60
2015,10,29,08,11,4.80
2015,10,29,08,12,4.80
2015,10,29,08,13,3.20
2015,10,29,08,14,4.80
2015,10,29,08,15,3.20
2015,10,29,08,16,3.20
2015,10,29,08,17,4.80
2015,10,29,08,18,3.20
2015,10,29,08,19,3.20
2015,10,29,08,20,3.20
2015,10,29,08,21,1.60
2015,10,29,08,22,1.60
2015,10,29,08,23,3.20
2015,10,29,08,24,1.60
2015,10,29,08,25,1.60
2015,10,29,08,26,3.20
2015,10,29,08,27,3.20
2015,10,29,08,28,3.20
2015,10,29,08,29,3.20
2015,10,29,08,30,3.20
2015,10,29,08,31,3.20
2015,10,29,08,32,3.20
2015,10,29,08,33,1.60
2015,10,29,08,34,1.60
2015,10,29,08,35,3.20
2015,10,29,08,36,3.20
2015,10,29,08,37,3.20
2015,10,29,08,38,1.60
2015,10,29,08,39,3.20
2015,10,29,08,40,3.20
2015,10,29,08,41,3.20
2015,10,29,08,42,3.20
2015,10,29,08,43,3.20
2015,10,29,08,44,3.20
2015,10,29,08,45,3.20
2015,10,29,08,46,3.20
2015,10,29,08,47,3.20
2015,10,29,08,48,4.80
2015,10,29,08,49,3.20
2015,10,29,08,50,3.20
2015,10,29,08,51,4.80
2015,10,29,08,52,4.80
2015,10,29,08,53,8.10
2015,10,29,08,54,4.80
2015,10,29,08,55,4.80
2015,10,29,08,56,4.80
2015,10,29,08,57,4.80
2015,10,29,08,58,4.80
2015,10,29,08,59,8.10
2015,10,29,09,00,8.10
2015,10,29,09,01,4.80
2015,10,29,09,02,3.20
2015,10,29,09,03,3.20
2015,10,29,09,04,3.20
2015,10,29,09,05,3.20
2015,10,29,09,06,4.80
2015,10,29,09,07,3.20
2015,10,29,09,08,3.20
2015,10,29,09,09,8.10
2015,10,29,09,10,4.80
2015,10,29,09,11,3.20
2015,10,29,09,12,6.40
2015,10,29,09,13,6.40
2015,10,29,09,14,3.20
2015,10,29,09,15,3.20
2015,10,29,09,16,1.60
2015,10,29,09,17,1.60
2015,10,29,09,18,1.60
2015,10,29,09,19,8.10
2015,10,29,09,20,8.10
2015,10,29,09,21,20.90
2015,10,29,09,22,9.60
2015,10,29,09,23,16.10
2015,10,29,09,24,11.30
2015,10,29,09,25,9.60
2015,10,29,09,26,6.40
2015,10,29,09,27,9.60
2015,10,29,09,28,11.30
2015,10,29,09,29,8.10
2015,10,29,09,30,9.60
2015,10,29,09,31,6.40
2015,10,29,09,32,9.60
2015,10,29,09,33,8.10
2015,10,29,09,34,9.60
2015,10,29,09,35,14.50
2015,10,29,09,36,14.50
2015,10,29,09,37,14.50
2015,10,29,09,38,11.30
2015,10,29,09,39,11.30
2015,10,29,09,40,8.10
2015,10,29,09,41,8.10
2015,10,29,09,42,8.10
2015,10,29,09,43,9.60
2015,10,29,09,44,9.60
2015,10,29,09,45,6.40
2015,10,29,09,46,8.10
2015,10,29,09,47,9.60
2015,10,29,09,48,8.10
2015,10,29,09,49,4.80
2015,10,29,09,50,6.40
2015,10,29,09,51,8.10
2015,10,29,09,52,6.40
2015,10,29,09,53,8.10
2015,10,29,09,54,11.30
2015,10,29,09,55,6.40
2015,10,29,09,56,6.40
2015,10,29,09,57,9.60
2015,10,29,09,58,8.10
2015,10,29,09,59,6.40
2015,10,29,10,00,8.10
2015,10,29,10,01,11.30
2015,10,29,10,02,14.50
2015,10,29,10,03,16.10
2015,10,29,10,04,11.30
2015,10,29,10,05,19.30
2015,10,29,10,06,14.50
2015,10,29,10,07,9.60
2015,10,29,10,08,6.40
2015,10,29,10,09,8.10
2015,10,29,10,10,8.10
2015,10,29,10,11,8.10
2015,10,29,10,12,8.10
2015,10,29,10,13,8.10
2015,10,29,10,14,8.10
2015,10,29,10,15,9.60
2015,10,29,10,16,9.60
2015,10,29,10,17,16.10
2015,10,29,10,18,16.10
2015,10,29,10,19,11.30
2015,10,29,10,20,9.60
2015,10,29,10,21,11.30
2015,10,29,10,22,9.60
2015,10,29,10,23,9.60
2015,10,29,10,24,11.30
2015,10,29,10,25,14.50
2015,10,29,10,26,6.40
2015,10,29,10,27,6.40
2015,10,29,10,28,8.10
2015,10,29,10,29,4.80
2015,10,29,10,30,6.40
2015,10,29,10,31,9.60
2015,10,29,10,32,3.20
2015,10,29,10,33,4.80
2015,10,29,10,34,4.80
2015,10,29,10,35,6.40
2015,10,29,10,36,8.10
2015,10,29,10,37,8.10
2015,10,29,10,38,8.10
2015,10,29,10,39,4.80
2015,10,29,10,40,4.80
2015,10,29,10,41,8.10
2015,10,29,10,42,6.40
2015,10,29,10,43,9.60
2015,10,29,10,44,4.80
2015,10,29,10,45,4.80
2015,10,29,10,46,4.80
2015,10,29,10,47,4.80
2015,10,29,10,48,9.60
2015,10,29,10,49,11.30
2015,10,29,10,50,8.10
2015,10,29,10,51,9.60
2015,10,29,10,52,6.40
2015,10,29,10,53,3.20
2015,10,29,10,54,4.80
2015,10,29,10,55,4.80
2015,10,29,10,56,8.10
2015,10,29,10,57,9.60
2015,10,29,10,58,9.60
2015,10,29,10,59,9.60
2015,10,29,11,00,6.40
2015,10,29,11,01,8.10
2015,10,29,11,02,9.60
2015,10,29,11,03,11.30
2015,10,29,11,04,14.50
2015,10,29,11,05,14.50
2015,10,29,11,06,8.10
2015,10,29,11,07,8.10
2015,10,29,11,08,9.60
2015,10,29,11,09,9.60
2015,10,29,11,10,6.40
2015,10,29,11,11,8.10
2015,10,29,11,12,9.60
2015,10,29,11,13,16.10
2015,10,29,11,14,11.30
2015,10,29,11,15,8.10
2015,10,29,11,16,11.30
2015,10,29,11,17,14.50
2015,10,29,11,18,14.50
2015,10,29,11,19,8.10
2015,10,29,11,20,16.10
2015,10,29,11,21,11.30
2015,10,29,11,22,8.10
2015,10,29,11,23,6.40
2015,10,29,11,24,11.30
2015,10,29,11,25,9.60
2015,10,29,11,26,6.40
2015,10,29,11,27,9.60
2015,10,29,11,28,11.30
2015,10,29,11,29,11.30
2015,10,29,11,30,8.10
2015,10,29,11,31,11.30
2015,10,29,11,32,11.30
2015,10,29,11,33,9.60
2015,10,29,11,34,6.40
2015,10,29,11,35,9.60
2015,10,29,11,36,8.10
2015,10,29,11,37,8.10
2015,10,29,11,38,11.30
2015,10,29,11,39,16.10
2015,10,29,11,40,9.60
2015,10,29,11,41,16.10
2015,10,29,11,42,14.50
2015,10,29,11,43,11.30
2015,10,29,11,44,9.60
2015,10,29,11,45,6.40
2015,10,29,11,46,9.60
2015,10,29,11,47,9.60
2015,10,29,11,48,14.50
2015,10,29,11,49,9.60
2015,10,29,11,50,9.60
2015,10,29,11,51,11.30
2015,10,29,11,52,9.60
2015,10,29,11,53,8.10
2015,10,29,11,54,4.80
2015,10,29,11,55,4.80
2015,10,29,11,56,6.40
2015,10,29,11,57,6.40
2015,10,29,11,58,8.10
2015,10,29,11,59,16.10
2015,10,29,12,00,9.60
2015,10,29,12,01,9.60
2015,10,29,12,02,9.60
2015,10,29,12,03,6.40
2015,10,29,12,04,9.60
2015,10,29,12,05,17.70
2015,10,29,12,06,8.10
2015,10,29,12,07,8.10
2015,10,29,12,08,8.10
2015,10,29,12,09,9.60
2015,10,29,12,10,9.60
2015,10,29,12,11,11.30
2015,10,29,12,12,9.60
2015,10,29,12,13,14.50
2015,10,29,12,14,9.60
2015,10,29,12,15,8.10
2015,10,29,12,16,9.60
2015,10,29,12,17,6.40
2015,10,29,12,18,6.40
2015,10,29,12,19,6.40
2015,10,29,12,20,6.40
2015,10,29,12,21,6.40
2015,10,29,12,22,6.40
2015,10,29,12,23,6.40
2015,10,29,12,24,4.80
2015,10,29,12,25,4.80
2015,10,29,12,26,4.80
2015,10,29,12,27,3.20
2015,10,29,12,28,3.20
2015,10,29,12,29,3.20
2015,10,29,12,30,4.80
2015,10,29,12,31,4.80
2015,10,29,12,32,1.60
2015,10,29,12,33,1.60
2015,10,29,12,34,9.60
2015,10,29,12,35,9.60
2015,10,29,12,36,3.20
2015,10,29,12,37,3.20
2015,10,29,12,38,6.40
2015,10,29,12,39,8.10
2015,10,29,12,40,9.60
2015,10,29,12,41,11.30
2015,10,29,12,42,8.10
2015,10,29,12,43,6.40
2015,10,29,12,44,8.10
2015,10,29,12,45,8.10
2015,10,29,12,46,6.40
2015,10,29,12,47,6.40
2015,10,29,12,48,4.80
2015,10,29,12,49,3.20
2015,10,29,12,50,3.20
2015,10,29,12,51,6.40
2015,10,29,12,52,4.80
2015,10,29,12,53,4.80
2015,10,29,12,54,4.80
2015,10,29,12,55,4.80
2015,10,29,12,56,4.80
2015,10,29,12,57,6.40
2015,10,29,12,58,8.10
2015,10,29,12,59,8.10
2015,10,29,13,00,4.80
2015,10,29,13,01,6.40
2015,10,29,13,02,8.10
2015,10,29,13,03,6.40
2015,10,29,13,04,6.40
2015,10,29,13,05,4.80
2015,10,29,13,06,8.10
2015,10,29,13,07,8.10
2015,10,29,13,08,6.40
2015,10,29,13,09,6.40
2015,10,29,13,10,4.80
2015,10,29,13,11,8.10
2015,10,29,13,12,8.10
2015,10,29,13,13,8.10
2015,10,29,13,14,6.40
2015,10,29,13,15,9.60
2015,10,29,13,16,11.30
2015,10,29,13,17,11.30
2015,10,29,13,18,14.50
2015,10,29,13,19,9.60
2015,10,29,13,20,12.90
2015,10,29,13,21,8.10
2015,10,29,13,22,8.10
2015,10,29,13,23,6.40
2015,10,29,13,24,9.60
2015,10,29,13,25,8.10
2015,10,29,13,26,6.40
2015,10,29,13,27,4.80
2015,10,29,13,28,6.40
2015,10,29,13,29,3.20
2015,10,29,13,30,8.10
2015,10,29,13,31,8.10
2015,10,29,13,32,4.80
2015,10,29,13,33,6.40
2015,10,29,13,34,6.40
2015,10,29,13,35,8.10
2015,10,29,13,36,9.60
2015,10,29,13,37,4.80
2015,10,29,13,38,6.40
2015,10,29,13,39,6.40
2015,10,29,13,40,6.40
2015,10,29,13,41,9.60
2015,10,29,13,42,9.60
2015,10,29,13,43,6.40
2015,10,29,13,44,9.60
2015,10,29,13,45,9.60
2015,10,29,13,46,9.60
2015,10,29,13,47,8.10
2015,10,29,13,48,6.40
2015,10,29,13,49,6.40
2015,10,29,13,50,6.40
2015,10,29,13,51,3.20
2015,10,29,13,52,4.80
2015,10,29,13,53,4.80
2015,10,29,13,54,6.40
2015,10,29,13,55,4.80
2015,10,29,13,56,3.20
2015,10,29,13,57,3.20
2015,10,29,13,58,3.20
2015,10,29,13,59,6.40
2015,10,29,14,00,6.40
2015,10,29,14,01,6.40
2015,10,29,14,02,6.40
2015,10,29,14,03,6.40
2015,10,29,14,04,6.40
2015,10,29,14,05,4.80
2015,10,29,14,06,8.10
2015,10,29,14,07,9.60
2015,10,29,14,08,8.10
2015,10,29,14,09,6.40
2015,10,29,14,10,6.40
2015,10,29,14,11,6.40
2015,10,29,14,12,4.80
2015,10,29,14,13,4.80
2015,10,29,14,14,6.40
2015,10,29,14,15,4.80
2015,10,29,14,16,6.40
2015,10,29,14,17,4.80
2015,10,29,14,18,4.80
2015,10,29,14,19,3.20
2015,10,29,14,20,4.80
2015,10,29,14,21,4.80
2015,10,29,14,22,3.20
2015,10,29,14,23,3.20
2015,10,29,14,24,4.80
2015,10,29,14,25,6.40
2015,10,29,14,26,4.80
2015,10,29,14,27,4.80
2015,10,29,14,28,4.80
2015,10,29,14,29,4.80
2015,10,29,14,30,4.80
2015,10,29,14,31,6.40
2015,10,29,14,32,4.80
2015,10,29,14,33,4.80
2015,10,29,14,34,3.20
2015,10,29,14,35,6.40
2015,10,29,14,36,6.40
2015,10,29,14,37,3.20
2015,10,29,14,38,4.80
2015,10,29,14,39,9.60
2015,10,29,14,40,9.60
2015,10,29,14,41,8.10
2015,10,29,14,42,6.40
2015,10,29,14,43,8.10
2015,10,29,14,44,4.80
2015,10,29,14,45,8.10
2015,10,29,14,46,9.60
2015,10,29,14,47,8.10
2015,10,29,14,48,4.80
2015,10,29,14,49,6.40
2015,10,29,14,50,6.40
2015,10,29,14,51,6.40
2015,10,29,14,52,9.60
2015,10,29,14,53,9.60
2015,10,29,14,54,4.80
2015,10,29,14,55,8.10
2015,10,29,14,56,8.10
2015,10,29,14,57,8.10
2015,10,29,14,58,6.40
2015,10,29,14,59,8.10
2015,10,29,15,00,8.10
2015,10,29,15,01,8.10
2015,10,29,15,02,6.40
2015,10,29,15,03,8.10
2015,10,29,15,04,6.40
2015,10,29,15,05,8.10
2015,10,29,15,06,9.60
2015,10,29,15,07,6.40
2015,10,29,15,08,4.80
2015,10,29,15,09,6.40
2015,10,29,15,10,6.40
2015,10,29,15,11,6.40
2015,10,29,15,12,8.10
2015,10,29,15,13,6.40
2015,10,29,15,14,8.10
2015,10,29,15,15,6.40
2015,10,29,15,16,4.80
2015,10,29,15,17,9.60
2015,10,29,15,18,8.10
2015,10,29,15,19,6.40
2015,10,29,15,20,8.10
2015,10,29,15,21,6.40
2015,10,29,15,22,8.10
2015,10,29,15,23,8.10
2015,10,29,15,24,6.40
2015,10,29,15,25,6.40
2015,10,29,15,26,11.30
2015,10,29,15,27,8.10
2015,10,29,15,28,6.40
2015,10,29,15,29,9.60
2015,10,29,15,30,9.60
2015,10,29,15,31,9.60
2015,10,29,15,32,9.60
2015,10,29,15,33,8.10
2015,10,29,15,34,8.10
2015,10,29,15,35,9.60
2015,10,29,15,36,6.40
2015,10,29,15,37,8.10
2015,10,29,15,38,8.10
2015,10,29,15,39,8.10
2015,10,29,15,40,8.10
2015,10,29,15,41,8.10
2015,10,29,15,42,9.60
2015,10,29,15,43,8.10
2015,10,29,15,44,9.60
2015,10,29,15,45,6.40
2015,10,29,15,46,8.10
2015,10,29,15,47,8.10
2015,10,29,15,48,6.40
2015,10,29,15,49,6.40
2015,10,29,15,50,8.10
2015,10,29,15,51,8.10
2015,10,29,15,52,6.40
2015,10,29,15,53,9.60
2015,10,29,15,54,6.40
2015,10,29,15,55,6.40
2015,10,29,15,56,8.10
2015,10,29,15,57,6.40
2015,10,29,15,58,8.10
2015,10,29,15,59,8.10
2015,10,29,16,00,6.40
2015,10,29,16,01,9.60
2015,10,29,16,02,6.40
2015,10,29,16,03,11.30
2015,10,29,16,04,8.10
2015,10,29,16,05,6.40
2015,10,29,16,06,9.60
2015,10,29,16,07,6.40
2015,10,29,16,08,8.10
2015,10,29,16,09,8.10
2015,10,29,16,10,9.60
2015,10,29,16,11,6.40
2015,10,29,16,12,6.40
2015,10,29,16,13,6.40
2015,10,29,16,14,8.10
2015,10,29,16,15,6.40
2015,10,29,16,16,4.80
2015,10,29,16,17,6.40
2015,10,29,16,18,8.10
2015,10,29,16,19,8.10
2015,10,29,16,20,4.80
2015,10,29,16,21,6.40
2015,10,29,16,22,8.10
2015,10,29,16,23,8.10
2015,10,29,16,24,8.10
2015,10,29,16,25,9.60
2015,10,29,16,26,9.60
2015,10,29,16,27,8.10
2015,10,29,16,28,6.40
2015,10,29,16,29,6.40
2015,10,29,16,30,8.10
2015,10,29,16,31,8.10
2015,10,29,16,32,8.10
2015,10,29,16,33,6.40
2015,10,29,16,34,6.40
2015,10,29,16,35,8.10
2015,10,29,16,36,6.40
2015,10,29,16,37,8.10
2015,10,29,16,38,4.80
2015,10,29,16,39,6.40
2015,10,29,16,40,6.40
2015,10,29,16,41,4.80
2015,10,29,16,42,6.40
2015,10,29,16,43,6.40
2015,10,29,16,44,4.80
2015,10,29,16,45,8.10
2015,10,29,16,46,8.10
2015,10,29,16,47,8.10
2015,10,29,16,48,4.80
2015,10,29,16,49,8.10
2015,10,29,16,50,8.10
2015,10,29,16,51,4.80
2015,10,29,16,52,11.30
2015,10,29,16,53,8.10
2015,10,29,16,54,9.60
2015,10,29,16,55,9.60
2015,10,29,16,56,14.50
2015,10,29,16,57,17.70
2015,10,29,16,58,9.60
2015,10,29,16,59,11.30
2015,10,29,17,00,11.30
2015,10,29,17,01,9.60
2015,10,29,17,02,9.60
2015,10,29,17,03,11.30
2015,10,29,17,04,14.50
2015,10,29,17,05,11.30
2015,10,29,17,06,17.70
2015,10,29,17,07,17.70
2015,10,29,17,08,20.90
2015,10,29,17,09,16.10
2015,10,29,17,10,16.10
2015,10,29,17,11,9.60
2015,10,29,17,12,16.10
2015,10,29,17,13,11.30
2015,10,29,17,14,22.50
2015,10,29,17,15,19.30
2015,10,29,17,16,20.90
2015,10,29,17,17,22.50
2015,10,29,17,18,17.70
2015,10,29,17,19,17.70
2015,10,29,17,20,22.50
2015,10,29,17,21,20.90
2015,10,29,17,22,25.70
2015,10,29,17,23,20.90
2015,10,29,17,24,17.70
2015,10,29,17,25,17.70
2015,10,29,17,26,11.30
2015,10,29,17,27,11.30
2015,10,29,17,28,12.90
2015,10,29,17,29,19.30
2015,10,29,17,30,19.30
2015,10,29,17,31,11.30
2015,10,29,17,32,9.60
2015,10,29,17,33,9.60
2015,10,29,17,34,14.50
2015,10,29,17,35,17.70
2015,10,29,17,36,17.70
2015,10,29,17,37,16.10
2015,10,29,17,38,17.70
2015,10,29,17,39,19.30
2015,10,29,17,40,16.10
2015,10,29,17,41,17.70
2015,10,29,17,42,20.90
2015,10,29,17,43,19.30
2015,10,29,17,44,16.10
2015,10,29,17,45,16.10
2015,10,29,17,46,17.70
2015,10,29,17,47,24.20
2015,10,29,17,48,17.70
2015,10,29,17,49,16.10
2015,10,29,17,50,17.70
2015,10,29,17,51,11.30
2015,10,29,17,52,16.10
2015,10,29,17,53,14.50
2015,10,29,17,54,11.30
2015,10,29,17,55,16.10
2015,10,29,17,56,20.90
2015,10,29,17,57,14.50
2015,10,29,17,58,12.90
2015,10,29,17,59,14.50
2015,10,29,18,00,16.10
2015,10,29,18,01,17.70
2015,10,29,18,02,16.10
2015,10,29,18,03,16.10
2015,10,29,18,04,16.10
2015,10,29,18,05,11.30
2015,10,29,18,06,16.10
2015,10,29,18,07,20.90
2015,10,29,18,08,16.10
2015,10,29,18,09,14.50
2015,10,29,18,10,16.10
2015,10,29,18,11,17.70
2015,10,29,18,12,9.60
2015,10,29,18,13,19.30
2015,10,29,18,14,16.10
2015,10,29,18,15,14.50
2015,10,29,18,16,14.50
2015,10,29,18,17,14.50
2015,10,29,18,18,12.90
2015,10,29,18,19,11.30
2015,10,29,18,20,14.50
2015,10,29,18,21,11.30
2015,10,29,18,22,16.10
2015,10,29,18,23,16.10
2015,10,29,18,24,17.70
2015,10,29,18,25,9.60
2015,10,29,18,26,11.30
2015,10,29,18,27,16.10
2015,10,29,18,28,14.50
2015,10,29,18,29,16.10
2015,10,29,18,30,16.10
2015,10,29,18,31,14.50
2015,10,29,18,32,11.30
2015,10,29,18,33,9.60
2015,10,29,18,34,20.90
2015,10,29,18,35,19.30
2015,10,29,18,36,17.70
2015,10,29,18,37,11.30
2015,10,29,18,38,9.60
2015,10,29,18,39,17.70
2015,10,29,18,40,11.30
2015,10,29,18,41,16.10
2015,10,29,18,42,17.70
2015,10,29,18,43,16.10
2015,10,29,18,44,16.10
2015,10,29,18,45,11.30
2015,10,29,18,46,17.70
2015,10,29,18,47,11.30
2015,10,29,18,48,16.10
2015,10,29,18,49,17.70
2015,10,29,18,50,12.90
2015,10,29,18,51,17.70
2015,10,29,18,52,11.30
2015,10,29,18,53,19.30
2015,10,29,18,54,11.30
2015,10,29,18,55,11.30
2015,10,29,18,56,9.60
2015,10,29,18,57,16.10
2015,10,29,18,58,16.10
2015,10,29,18,59,19.30
2015,10,29,19,00,17.70
2015,10,29,19,01,16.10
2015,10,29,19,02,19.30
2015,10,29,19,03,17.70
2015,10,29,19,04,16.10
2015,10,29,19,05,9.60
2015,10,29,19,06,11.30
2015,10,29,19,07,11.30
2015,10,29,19,08,9.60
2015,10,29,19,09,6.40
2015,10,29,19,10,16.10
2015,10,29,19,11,12.90
2015,10,29,19,12,14.50
2015,10,29,19,13,12.90
2015,10,29,19,14,19.30
2015,10,29,19,15,19.30
2015,10,29,19,16,17.70
2015,10,29,19,17,17.70
2015,10,29,19,18,14.50
2015,10,29,19,19,19.30
2015,10,29,19,20,16.10
2015,10,29,19,21,16.10
2015,10,29,19,22,14.50
2015,10,29,19,23,16.10
2015,10,29,19,24,20.90
2015,10,29,19,25,19.30
2015,10,29,19,26,17.70
2015,10,29,19,27,11.30
2015,10,29,19,28,16.10
2015,10,29,19,29,9.60
2015,10,29,19,30,9.60
2015,10,29,19,31,9.60
2015,10,29,19,32,9.60
2015,10,29,19,33,8.10
2015,10,29,19,34,14.50
2015,10,29,19,35,17.70
2015,10,29,19,36,8.10
2015,10,29,19,37,16.10
2015,10,29,19,38,16.10
2015,10,29,19,39,16.10
2015,10,29,19,40,16.10
2015,10,29,19,41,17.70